This is the latest recevied weather packets stored in our database for station/object N9GKE-1. If no packets are shown the sender has not sent any weather packets the latest 1 day(s).
| Time | Temp. | Humidity | Pressure | Rain* | Wind** | Luminosity | Snow |
|---|---|---|---|---|---|---|---|
| 1778099950 | 13.89° C | 50% | 1014 hPa | 0 mm | - | - | - |
| 1778098895 | 14.44° C | 48% | 1014.3 hPa | 0 mm | - | - | - |
| 1778098295 | 14.44° C | 51% | 1014.4 hPa | 0 mm | - | - | - |
| 1778098151 | 13.89° C | 48% | 1014.4 hPa | 0 mm | - | - | - |
| 1778096951 | 14.44° C | 48% | 1014.4 hPa | 0 mm | - | - | - |
| 1778095296 | 14.44° C | 44% | 1014.4 hPa | 0 mm | - | - | - |
| 1778094696 | 13.89° C | 45% | 1014.5 hPa | 0 mm | - | - | - |
| 1778094550 | 13.89° C | 47% | 1014.5 hPa | 0 mm | - | - | - |
| 1778094095 | 13.33° C | 54% | 1014.5 hPa | 0 mm | - | - | - |
| 1778093950 | 13.33° C | 51% | 1014.5 hPa | 0 mm | - | - | - |
| 1778092749 | 13.33° C | 50% | 1014.5 hPa | 0 mm | - | - | - |
| 1778091550 | 12.78° C | 55% | 1014.5 hPa | 0 mm | - | - | - |
| 1778090495 | 13.33° C | 57% | 1014.4 hPa | 0 mm | - | - | - |
| 1778090350 | 13.33° C | 56% | 1014.4 hPa | 0 mm | - | - | - |
| 1778089895 | 13.33° C | 57% | 1014.5 hPa | 0 mm | - | - | - |
| 1778089750 | 13.33° C | 55% | 1014.6 hPa | 0 mm | - | - | - |
| 1778089294 | 13.33° C | 59% | 1014.6 hPa | 0 mm | - | - | - |
| 1778087950 | 13.33° C | 55% | 1014.7 hPa | 0 mm | - | - | - |
| 1778087351 | 13.33° C | 54% | 1014.5 hPa | 0 mm | - | - | - |
| 1778086294 | 12.78° C | 56% | 1014.3 hPa | 0 mm | - | - | - |
| 1778086151 | 12.78° C | 56% | 1014.3 hPa | 0 mm | - | - | - |
| 1778085094 | 12.78° C | 57% | 1014.2 hPa | 0 mm | - | - | - |
| 1778084950 | 12.78° C | 55% | 1014.2 hPa | 0 mm | - | - | - |
| 1778083294 | 12.22° C | 55% | 1014.1 hPa | 0 mm | - | - | - |
| 1778080894 | 12.22° C | 59% | 1014.2 hPa | 0 mm | - | - | - |
* Rain latest hour (hover to see other rain measurements)
** Current wind speed in m/s (hover to see current wind gust speed)